Tracking 18852 objects as of 23-Nov-2017
HD Live streaming from Space Station
objects crossing your sky now

FENGYUN 1C DEB

Track FENGYUN 1C DEB now!
10-day predictions


NORAD ID: 30016
Int'l Code: 1999-025MR
Perigee: 698.6 km
Apogee: 819.6 km
Inclination: 98.9 °
Period: 99.9 minutes
Semi major axis: 7130 km
RCS: 0.017 m2 (small)
Launch date: May 10, 1999
Source: People's Republic of China (PRC)
Launch site: Taiyaun Space Center, China (TSC)

Note: This is SATELLITE DEBRIS
aabbcc
Your satellite tracking list
Your tracking list is empty




NASA's NSSDC Master Catalog

Two Line Element Set (TLE):
1 30016U 99025MR  17326.47230354 +.00000957 +00000-0 +29451-3 0  9997
2 30016 098.9479 135.0981 0084820 242.0219 176.4042 14.41986802568340
Source of the keplerian elements: AFSPC